This is the latest recevied weather packets stored in our database for station/object KE8WAY. If no packets are shown the sender has not sent any weather packets the latest 1 day(s).
| Time | Temp. | Humidity | Pressure | Rain* | Wind** | Luminosity | Snow |
|---|---|---|---|---|---|---|---|
| 1836274719 | 19.44° C | 84% | 1019.6 hPa | 0 mm | 1.34 m/s, 26° | 0 W/m² | - |
| 1836274572 | 18.89° C | 85% | 1019.7 hPa | 0 mm | 0.89 m/s, 54° | 0 W/m² | - |
| 1836274418 | 19.44° C | 84% | 1019.6 hPa | 0 mm | 1.79 m/s, 60° | 0 W/m² | - |
| 1836274271 | 19.44° C | 84% | 1019.9 hPa | 0 mm | 1.79 m/s, 28° | 0 W/m² | - |
| 1836274116 | 19.44° C | 84% | 1019.4 hPa | 0 mm | 1.79 m/s, 72° | 0 W/m² | - |
| 1778030595 | 9.44° C | 92% | 1007.9 hPa | 1.27 mm | 2.24 m/s, 227° | 0 W/m² | - |
| 1778030292 | 9.44° C | 92% | 1007.8 hPa | 0 mm | 1.79 m/s, 199° | 0 W/m² | - |
| 1778029988 | 9.44° C | 92% | 1007.9 hPa | 0 mm | 2.24 m/s, 224° | 0 W/m² | - |
| 1778029686 | 9.44° C | 92% | 1007.6 hPa | 0 mm | 1.79 m/s, 237° | 0 W/m² | - |
| 1778029384 | 9.44° C | 92% | 1007.5 hPa | 0 mm | 1.34 m/s, 206° | 0 W/m² | - |
| 1778029080 | 9.44° C | 92% | 1007.4 hPa | 0 mm | 1.79 m/s, 223° | 0 W/m² | - |
| 1778028777 | 9.44° C | 92% | 1007.6 hPa | 1.78 mm | 2.24 m/s, 221° | 0 W/m² | - |
| 1778028473 | 9.44° C | 92% | 1007.6 hPa | 1.78 mm | 2.24 m/s, 209° | 0 W/m² | - |
| 1778028171 | 9.44° C | 92% | 1007.5 hPa | 0 mm | 2.24 m/s, 215° | 0 W/m² | - |
| 1778027867 | 9.44° C | 92% | 1007.8 hPa | 1.27 mm | 3.13 m/s, 220° | 0 W/m² | - |
| 1778027563 | 9.44° C | 92% | 1007.7 hPa | 1.27 mm | 2.24 m/s, 220° | 0 W/m² | - |
| 1778027260 | 9.44° C | 92% | 1007.7 hPa | 1.27 mm | 3.13 m/s, 217° | 0 W/m² | - |
| 1778026956 | 9.44° C | 92% | 1007.7 hPa | 1.78 mm | 2.24 m/s, 222° | 0 W/m² | - |
| 1778026651 | 9.44° C | 92% | 1007.8 hPa | 1.78 mm | 2.24 m/s, 230° | 0 W/m² | - |
| 1778026349 | 9.44° C | 92% | 1007.7 hPa | 1.27 mm | 2.24 m/s, 218° | 2 W/m² | - |
| 1778026046 | 9.44° C | 91% | 1007.6 hPa | 1.27 mm | 2.68 m/s, 222° | 3 W/m² | - |
| 1778025744 | 9.44° C | 91% | 1007.3 hPa | 0 mm | 2.68 m/s, 214° | 3 W/m² | - |
| 1778025441 | 9.44° C | 91% | 1007.6 hPa | 1.78 mm | 2.24 m/s, 217° | 6 W/m² | - |
| 1778025139 | 9.44° C | 91% | 1007.5 hPa | 1.78 mm | 2.24 m/s, 199° | 10 W/m² | - |
| 1778024835 | 9.44° C | 91% | 1007.4 hPa | 0 mm | 2.68 m/s, 226° | 8 W/m² | - |
* Rain latest hour (hover to see other rain measurements)
** Current wind speed in m/s (hover to see current wind gust speed)